Location: Bogis-Bossey
(46.3500°N, 6.1667°E)
Time: 17:06:05
(UTC+00:00)

IGS 5A - Pass Details

Date: 17 August 2022
Orbit: 581 x 586 km, 97.5° (Epoch: 28 September)

Event Time Altitude Azimuth Distance (km) Brightness Sun altitude
Rises 19:16:51 0° 166° (SSE) 2,797 6.5 -6.4°
Reaches altitude 10° 19:19:00 10° 166° (SSE) 1,902 5.7 -6.7°
Maximum altitude 19:23:08 90° 269° (W) 593 3.5 -7.4°
Drops below altitude 10° 19:27:18 10° 347° (NNW) 1,920 6.7 -8.0°
Sets 19:29:29 0° 348° (NNW) 2,826 7.6 -8.3°
